Weather History for KBKW - January, 2012

Change the Weather History Date:

Wednesday, January 18, 2012

  Actual Average Record
Temperature  
Mean Temperature 30 °F 31 °F  
Max Temperature 38 °F 39 °F 67 °F (1943)
Min Temperature 21 °F 23 °F -13 °F (1994)
Degree Days  
Heating Degree Days 35 34  
Month to date heating degree days 559 612  
Since 1 July heating degree days 2305 2705  
Cooling Degree Days 0 0  
Month to date cooling degree days 0 0  
Year to date cooling degree days 0 0  
Moisture  
Dew Point 18 °F    
Average Humidity 65    
Maximum Humidity 75    
Minimum Humidity 55    
Precipitation  
Precipitation T in 0.09 in 0.88 in (1952)
Month to date precipitation 1.51 1.65  
Year to date precipitation 1.51 1.65  
Snow  
Snow T in - - ()
Month to date snowfall 11.0  
Since 1 September snowfall 18.8  
Snow Depth 0.00 in    
Sea Level Pressure  
Sea Level Pressure 30.11 in    
Wind  
Wind Speed 9 mph (NW)    
Max Wind Speed 22 mph    
Max Gust Speed 30 mph    
Visibility 9 miles    
Events Snow    
T = Trace of Precipitation, MM = Missing Value Source: NWS Daily Summary

Daily Weather History Graph

Daily Weather History Graph

Search for Another Location

Airport or City:

Trip Planner

Search our weather history database for the weather conditions in past years. The results will help you decide how hot, cold, wet, or windy it might be!

Date:

Astronomy

Jan. 18, 2012 Rise Set
Actual Time 7:37 AM EST 5:32 PM EST
Civil Twilight 7:09 AM EST 6:00 PM EST
Nautical Twilight 6:37 AM EST 6:32 PM EST
Astronomical Twilight 6:05 AM EST 7:04 PM EST
Moon 3:05 AM EST (1/18) 1:10 PM EST (1/18)
Length of Visible Light 10h 51m
Length of Day
9h 54m
Waning Crescent, 25% of the Moon is Illuminated
Jan 18
Waning Crescent
Jan 23
New
Jan 30
First Quarter
Feb 7
Full
Feb 14
Last Quarter

Hourly Weather History & Observations

Time (EST) Temp. Windchill Dew Point Humidity Pressure Visibility Wind Dir Wind Speed Gust Speed Precip Events Conditions
12:51 AM 37.0 °F 28.5 °F 28.0 °F 70% 29.98 in 10.0 mi NW 13.8 mph 19.6 mph N/A   Overcast
1:51 AM 35.1 °F 25.9 °F 28.0 °F 76% 30.00 in 10.0 mi West 13.8 mph 19.6 mph N/A   Overcast
2:51 AM 32.0 °F 20.5 °F 25.0 °F 75% 30.02 in 9.0 mi NNW 18.4 mph 23.0 mph 0.00 in   Overcast
3:51 AM 30.0 °F 18.7 °F 21.0 °F 69% 30.04 in 10.0 mi WNW 16.1 mph 29.9 mph N/A   Overcast
4:51 AM 28.9 °F 18.6 °F 19.0 °F 67% 30.06 in 10.0 mi NNW 12.7 mph 19.6 mph N/A   Overcast
5:05 AM 28.4 °F 17.5 °F 19.4 °F 69% 30.02 in 10.0 mi NW 13.8 mph 24.2 mph N/A   Overcast
5:51 AM 28.0 °F 19.3 °F 18.0 °F 66% 30.07 in 10.0 mi NW 9.2 mph - N/A   Overcast
6:19 AM 28.4 °F 17.5 °F 17.6 °F 64% 30.04 in 10.0 mi NW 13.8 mph - N/A   Overcast
6:51 AM 28.0 °F 18.1 °F 17.1 °F 63% 30.09 in 10.0 mi NW 11.5 mph 20.7 mph N/A   Overcast
7:51 AM 27.0 °F 15.6 °F 17.1 °F 66% 30.09 in 10.0 mi NW 13.8 mph 21.9 mph N/A   Overcast
8:51 AM 27.0 °F 15.2 °F 19.0 °F 72% 30.13 in 10.0 mi NNW 15.0 mph - N/A   Overcast
9:51 AM 26.1 °F 17.6 °F 19.9 °F 78% 30.16 in 6.0 mi NW 8.1 mph - 0.00 in Snow Light Snow
10:23 AM 26.6 °F 18.2 °F 21.2 °F 80% 30.11 in 6.0 mi North 8.1 mph - 0.00 in Snow Light Snow
10:47 AM 26.6 °F 16.8 °F 19.4 °F 74% 30.12 in 7.0 mi NNW 10.4 mph - 0.00 in Snow Light Snow
10:51 AM 26.1 °F 16.8 °F 19.9 °F 78% 30.19 in 8.0 mi NW 9.2 mph - 0.00 in   Overcast
11:51 AM 26.1 °F 16.2 °F 17.1 °F 69% 30.17 in 10.0 mi NNW 10.4 mph - N/A   Overcast
12:51 PM 26.1 °F 17.6 °F 16.0 °F 66% 30.17 in 10.0 mi WNW 8.1 mph - N/A   Overcast
1:51 PM 26.1 °F 16.8 °F 17.1 °F 69% 30.16 in 9.0 mi NW 9.2 mph - 0.00 in Snow Light Snow
2:40 PM 26.6 °F 18.2 °F 17.6 °F 69% 30.07 in 7.0 mi WNW 8.1 mph - 0.00 in   Overcast
2:51 PM 26.1 °F 18.4 °F 16.0 °F 66% 30.17 in 9.0 mi NW 6.9 mph - 0.00 in   Overcast
3:51 PM 26.1 °F 17.6 °F 12.0 °F 55% 30.17 in 10.0 mi NNW 8.1 mph - N/A   Overcast
4:51 PM 26.1 °F 19.4 °F 15.1 °F 63% 30.18 in 10.0 mi NW 5.8 mph - N/A   Overcast
5:51 PM 25.0 °F 18.1 °F 16.0 °F 69% 30.16 in 10.0 mi North 5.8 mph - N/A   Overcast
6:51 PM 25.0 °F 15.5 °F 15.1 °F 66% 30.17 in 10.0 mi North 9.2 mph - N/A   Overcast
7:51 PM 24.1 °F 17.0 °F 15.1 °F 69% 30.17 in 10.0 mi North 5.8 mph - N/A   Overcast
8:23 PM 24.8 °F 20.5 °F 15.8 °F 69% 30.05 in 10.0 mi NNE 3.5 mph - N/A   Overcast
8:51 PM 24.1 °F - 15.1 °F 69% 30.16 in 10.0 mi Calm Calm - N/A   Overcast
9:51 PM 24.1 °F - 15.1 °F 69% 30.17 in 10.0 mi Calm Calm - N/A   Overcast
10:51 PM 23.0 °F - 16.0 °F 74% 30.15 in 10.0 mi Calm Calm - N/A   Mostly Cloudy
11:24 PM 21.2 °F 16.4 °F 12.2 °F 68% 30.04 in 10.0 mi SSW 3.5 mph - N/A   Scattered Clouds
11:51 PM 21.0 °F 16.2 °F 12.9 °F 71% 30.17 in 10.0 mi South 3.5 mph - N/A   Partly Cloudy